Tracking 34747 objects as of 16-Jul-2026
HD Live streaming from Space Station
objects crossing your sky now

BREEZE-M R/B

Track BREEZE-M R/B now!
10-day predictions


NORAD ID: 28944
Int'l Code: 2006-006B
Perigee: 1,045.7 km
Apogee: 14,826.3 km
Inclination: 50.7 °
Period: 283.8 minutes
Semi major axis: 14307 km
RCS: 13.6373 m2 (large)
Launch date: February 28, 2006
Source: Commonwealth of Independent States (former USSR) (CIS)
Launch site: TYURATAM MISSILE AND SPACE COMPLEX (TTMTR)

Note: This is a ROCKET BODY
Your satellite tracking list
Your tracking list is empty




NASA's NSSDC Master Catalog

Two Line Element Set (TLE):
1 28944U 06006B   26196.92659814 -.00000024  00000-0  00000+0 0  9993
2 28944  50.7009  67.3805 4816024 143.6876 343.5758  5.07316567359359
Source of the keplerian elements: AFSPC